Flag for Poland Weather past 2 weeks in Rybnik, Poland

Now
79 °F

Passing clouds.


Feels Like: 80 °F
Forecast: 62 / 83 °F
Wind: 5 mph from Northeast

Location: Katowice Airport

Current Time: Aug 28, 2015 at 7:56:55 PM

Latest Report: Aug 28, 2015 at 7:00 PM


Visibility: N/A

Pressure: 30.07 "Hg

Humidity: 54%

Dew point: 61 °F

Location of RybnikLocation

Historic Weather in Rybnik — Graph

°F

Rybnik temperature yesterday

Maximum temperature yesterday: 84 °F (at 3:00 PM)
Minimum temperature yesterday: 50 °F (at 5:30 AM)
Average temperature yesterday: 71 °F

Past Weeks' High & Low Weather Summary

 TemperatureHumidityPressure
High93 °F (Aug 15, 2:30 PM)100% (Aug 16, 1:30 PM)30.30 "Hg (Aug 16, 1:30 PM)
Low46 °F (Aug 22, 6:00 AM)25% (Aug 20, 3:00 PM)29.77 "Hg (Aug 15, 2:00 PM)
Average68 °F60%30.02 "Hg
* Reported Aug 13 7:00 PM — Aug 28 7:00 PM, Rybnik, Weather by CustomWeather, © 2015

Note: Actual official high and low records may vary slightly from our data, if they occured in-between our weather recording intervals... More about our weather records

Advertising

Rybnik weather history for previous 24 hours

 ConditionsComfort  
Time TempWeatherWind HumidityBarometerVisibility
7:00 PM
Fri, Aug 28
79 °FPassing clouds.5 mph54%30.07 "HgN/A
6:30 PM84 °FSunny.10 mph43%30.07 "Hg10 mi
6:00 PM84 °FSunny.15 mph40%30.07 "Hg10 mi
5:30 PM84 °FSunny.16 mph40%30.07 "Hg10 mi
5:00 PM86 °FSunny.20 mph38%30.04 "Hg10 mi
4:30 PM86 °FSunny.15 mph40%30.04 "Hg10 mi
4:00 PM88 °FSunny.21 mph35%30.04 "Hg10 mi
3:30 PM86 °FSunny.16 mph38%30.01 "Hg10 mi
3:00 PM88 °FPassing clouds.16 mph38%30.01 "HgN/A
2:30 PM88 °FSunny.15 mph38%30.01 "Hg10 mi
2:00 PM88 °FPassing clouds.12 mph38%30.01 "HgN/A
1:30 PM86 °FPassing clouds.13 mph40%30.01 "HgN/A
1:00 PM84 °FSunny.15 mph43%30.04 "Hg10 mi
12:30 PM82 °FSunny.15 mph45%30.01 "Hg10 mi
12:00 PM82 °FSunny.15 mph48%30.01 "Hg10 mi
11:30 AM81 °FSunny.18 mph51%30.01 "Hg10 mi
11:00 AM81 °FSunny.18 mph48%30.01 "Hg10 mi
10:30 AM79 °FSunny.17 mph54%30.01 "Hg10 mi
10:00 AM77 °FSunny.12 mph57%30.01 "Hg10 mi
9:30 AM75 °FSunny.12 mph61%30.01 "Hg10 mi
9:00 AM75 °FPassing clouds.10 mph61%29.98 "HgN/A
8:30 AM73 °FPassing clouds.9 mph65%29.98 "HgN/A
8:00 AM68 °FSunny.6 mph78%29.98 "Hg10 mi
7:30 AM64 °FSunny.8 mph83%29.98 "Hg10 mi
7:00 AM64 °FClear.7 mph83%29.98 "Hg5 mi
6:30 AM63 °FFog.8 mph88%29.98 "HgN/A
6:00 AM63 °FFog.7 mph88%29.98 "HgN/A
5:00 AM63 °FClear.5 mph83%29.98 "Hg10 mi
4:30 AM63 °FClear.9 mph88%29.98 "Hg10 mi
4:00 AM64 °FPassing clouds.7 mph83%29.98 "HgN/A
3:30 AM64 °FPassing clouds.6 mph78%29.98 "HgN/A
3:00 AM64 °FPassing clouds.3 mph78%29.98 "HgN/A
2:30 AM63 °FClear.5 mph83%29.95 "Hg10 mi
2:00 AM61 °FClear.3 mph88%29.98 "Hg10 mi
1:30 AM66 °FPassing clouds.3 mph78%29.98 "HgN/A
1:00 AM66 °FClear.6 mph78%29.98 "Hg10 mi
12:00 AM68 °FClear.6 mph69%29.98 "Hg10 mi
11:30 PM
Thu, Aug 27
68 °FClear.7 mph69%29.98 "Hg10 mi
11:00 PM70 °FClear.6 mph64%30.01 "Hg10 mi
10:30 PM68 °FClear.6 mph69%29.98 "Hg10 mi
10:00 PM72 °FClear.7 mph61%29.98 "Hg10 mi
9:30 PM73 °FClear.7 mph57%29.98 "Hg10 mi
9:00 PM73 °FClear.7 mph57%29.98 "Hg10 mi
8:30 PM73 °FSunny.6 mph57%30.01 "Hg10 mi
8:00 PM77 °FSunny.6 mph51%29.98 "Hg10 mi
7:30 PM77 °FSunny.7 mph51%29.98 "Hg10 mi
7:00 PM81 °FSunny.10 mph42%29.98 "Hg10 mi
Weather by CustomWeather, © 2015

See weather overviewHow to use our weather pages